Location: Moscow
(38.8570°N, 84.2291°W)
Time: 16:24:14
(UTC+00:00)

NOAA 18 - Visible Passes

Search period start: 14 March 2026 00:00
Search period end: 24 March 2026 00:00
Orbit: 836 x 858 km, 98.8° (Epoch: 14 March)

Date Brightness Start Highest point End Pass type
(mag) Time Alt. Az. Time Alt. Az. Time Alt. Az.
15 Mar 7.9 03:28:21 10° N 03:28:21 10° N 03:28:22 10° N visible
16 Mar 7.9 03:15:04 10° N 03:15:04 10° N 03:15:09 10° N visible
17 Mar 7.8 03:01:47 10° NNE 03:01:47 10° NNE 03:01:51 10° N visible
19 Mar 8.1 04:17:09 10° NNW 04:17:09 10° NNW 04:17:09 10° NNW visible
20 Mar 8.0 04:03:52 12° NNW 04:03:52 12° NNW 04:04:10 10° NNW visible
21 Mar 7.8 03:50:35 13° N 03:50:35 13° N 03:51:09 10° N visible
22 Mar 7.7 03:37:18 14° N 03:37:18 14° N 03:38:02 10° N visible
23 Mar 7.6 03:24:01 15° N 03:24:01 15° N 03:24:53 10° N visible
